User: anonymous   Login
Location: Unspecified
(0.0000°N, 0.0000°E)
Time: 12:54:37
(UTC+00:00)
Language:

MUOS 3 - Orbit

View from above orbital plane
View from above orbital plane
View from above satellite
View from above satellite

Ground track
Ground track

The orbit is defined by the following mean orbital elements,

1 40374U          26146.08169703 +.00000000 +00000-0 +00000-0 0 00004
2 40374   4.4790  43.4222 0051238 179.1861  35.0058  1.00272846    04
Epoch (UTC): 26 May 2026 01:57:38
Eccentricity: 0.0051238
inclination: 4.4790°
perigee height: 35570 km
apogee height: 36002 km
right ascension of ascending node: 43.4222°
argument of perigee: 179.1861°
revolutions per day: 1.00272846
mean anomaly at epoch: 35.0058°

The dashed part of the orbit path shows where the satellite is in the earth's shadow,  

DLR